Location: Unspecified
(41.6860°N, 0.0000°E)
Time: 01:06:46
(UTC+00:00)

CZ-2D DEB - Visible Passes

Search period start: 04 April 2026 00:00
Search period end: 14 April 2026 00:00
Orbit: 765 x 992 km, 98.7° (Epoch: 28 March)

Date Brightness Start Highest point End Pass type
(mag) Time Alt. Az. Time Alt. Az. Time Alt. Az.
4 Apr ? 00:23:58 12° NNW 00:23:58 12° NNW 00:24:22 10° NNW visible
5 Apr ? 00:20:03 13° NNW 00:20:03 13° NNW 00:20:37 10° NNW visible
6 Apr ? 00:16:09 14° NNW 00:16:09 14° NNW 00:16:51 10° NNW visible
7 Apr ? 00:12:14 15° NNW 00:12:14 15° NNW 00:13:05 10° NNW visible
8 Apr ? 00:08:19 16° N 00:08:19 16° N 00:09:20 10° NNW visible
9 Apr ? 00:04:24 17° N 00:04:24 17° N 00:05:33 10° N visible
10 Apr ? 00:00:29 18° N 00:00:29 18° N 00:01:46 10° N visible
10 Apr ? 23:56:34 19° N 23:56:34 19° N 23:57:59 10° N visible
11 Apr ? 23:52:39 20° N 23:52:39 20° N 23:54:12 10° N visible
12 Apr ? 23:48:43 21° N 23:48:43 21° N 23:50:24 10° N visible
13 Apr ? 23:44:48 21° N 23:44:48 21° N 23:46:35 10° N visible
